EW1669 Weather Reports


time (UTC)temp
C
wind
direction
speed
KPH
gust
KPH
rain 1hr
cm
rain 24hr
cm
rain mn
cm
humidity
%
barometer
mb
20260510170534 15 59 6.4 27.4 0.00 0.00 0.00 62 1022.8
20260510170216 15 10 20.9 29.0 0.00 0.00 0.00 61 1022.8
20260510165353 15 1 20.9 35.4 0.00 0.00 0.00 60 1022.4
20260510164754 15 337 17.7 25.7 0.00 0.00 0.00 61 1022.1
20260510164210 15 349 16.1 27.4 0.00 0.00 0.00 59 1022.1
20260510163546 15 357 14.5 30.6 0.00 0.00 0.00 61 1021.7
20260510162945 15 352 16.1 30.6 0.00 0.00 0.00 62 1022.1
20260510162409 15 1 6.4 24.1 0.00 0.00 0.00 63 1021.7
20260510161856 15 5 16.1 27.4 0.00 0.00 0.00 64 1021.7
20260510161317 14 8 17.7 27.4 0.00 0.00 0.00 65 1021.7
20260510160657 15 352 17.7 25.7 0.00 0.00 0.00 63 1021.4
20260510160100 16 3 16.1 37.0 0.00 0.00 0.00 60 1021.7
20260510155513 16 11 9.7 33.8 0.00 0.00 0.00 59 1021.4
20260510155219 16 13 24.1 33.8 0.00 0.00 0.00 60 1021.1
20260510154349 15 356 19.3 37.0 0.00 0.00 0.00 60 1021.1
20260510153802 15 8 17.7 40.2 0.00 0.00 0.00 61 1020.7
20260510153150 15 337 19.3 35.4 0.00 0.00 0.00 63 1020.4
20260510152823 14 30 24.1 29.0 0.00 0.00 0.00 64 1020.4
20260510151956 14 3 17.7 30.6 0.00 0.00 0.00 65 1020.7
20260510151350 13 348 22.5 37.0 0.00 0.00 0.00 66 1020.7
20260510150754 13 26 25.7 37.0 0.00 0.00 0.00 68 1020.4
20260510150151 13 341 17.7 33.8 0.00 0.00 0.00 69 1020.4
20260510145558 13 333 19.3 40.2 0.00 0.00 0.00 68 1020.0
20260510144955 13 347 30.6 40.2 0.00 0.00 0.00 68 1020.0
20260510144357 13 339 22.5 33.8 0.00 0.00 0.00 69 1019.7
20260510143801 13 343 20.9 37.0 0.00 0.00 0.00 70 1019.7
20260510143155 14 337 24.1 35.4 0.00 0.00 0.00 70 1019.7
20260510142601 13 358 24.1 35.4 0.00 0.00 0.00 71 1019.7
20260510142011 13 335 14.5 25.7 0.00 0.00 0.00 71 1019.4
20260510141612 13 11 19.3 35.4 0.00 0.00 0.00 72 1019.4
20260510140850 13 342 20.9 35.4 0.00 0.00 0.00 72 1019.7
20260510140327 13 6 22.5 35.4 0.00 0.00 0.00 72 1019.7
20260510135814 13 346 25.7 30.6 0.00 0.00 0.00 72 1019.4
20260510135155 13 337 24.1 30.6 0.00 0.00 0.00 72 1019.4
20260510134545 13 1 17.7 33.8 0.00 0.00 0.00 72 1019.4
20260510134000 13 19 27.4 35.4 0.00 0.00 0.00 72 1019.4
20260510133405 13 3 12.9 35.4 0.00 0.00 0.00 71 1019.4
20260510132758 13 14 22.5 29.0 0.00 0.00 0.00 71 1019.4
20260510132214 13 349 19.3 27.4 0.00 0.00 0.00 71 1019.4
20260510131552 14 336 17.7 29.0 0.00 0.00 0.00 70 1018.7
20260510130952 14 0 12.9 27.4 0.00 0.00 0.00 69 1018.3
20260510130408 14 359 20.9 27.4 0.00 0.00 0.00 69 1018.7
20260510125800 14 351 12.9 25.7 0.00 0.00 0.00 69 1018.3
20260510125158 14 331 19.3 29.0 0.00 0.00 0.00 69 1018.0
20260510124900 14 341 8.0 24.1 0.00 0.00 0.00 68 1017.7
20260510124046 14 336 9.7 22.5 0.00 0.00 0.00 68 1017.7
20260510123718 14 325 16.1 20.9 0.00 0.00 0.00 68 1017.7
20260510122856 13 358 12.9 24.1 0.00 0.00 0.00 67 1017.7
20260510122236 13 330 14.5 24.1 0.00 0.00 0.00 66 1017.3
20260510121653 13 9 14.5 24.1 0.00 0.00 0.00 66 1017.7
20260510121100 13 338 8.0 24.1 0.00 0.00 0.00 65 1017.7
20260510120501 14 359 8.0 16.1 0.00 0.00 0.00 66 1017.7
20260510115846 14 357 9.7 20.9 0.00 0.00 0.00 66 1017.0
20260510115255 14 329 11.3 22.5 0.00 0.00 0.00 65 1016.7
20260510114909 14 17 17.7 22.5 0.00 0.00 0.00 64 1016.7
20260510114755 14 18 8.0 17.7 0.00 0.00 0.00 63 1016.3
20260510113504 15 354 0.0 17.7 0.00 0.00 0.00 61 1016.3
20260510112954 15 303 9.7 22.5 0.00 0.00 0.00 60 1016.3
20260510112354 15 19 11.3 22.5 0.00 0.00 0.00 58 1016.3
20260510111802 15 352 6.4 20.9 0.00 0.00 0.00 57 1016.3
20260510111152 15 335 11.3 20.9 0.00 0.00 0.00 58 1016.3
20260510110554 16 348 11.3 24.1 0.00 0.00 0.00 65 1016.0
20260510110220 16 4 12.9 24.1 0.00 0.00 0.00 76 1015.6
20260510105613 16 0 9.7 17.7 0.00 0.00 0.00 76 1015.6
20260510104757 16 0 8.0 20.9 0.00 0.00 0.00 76 1015.6
20260510104152 16 7 9.7 29.0 0.00 0.00 0.00 76 1015.3
20260510103555 16 338 16.1 29.0 0.00 0.00 0.00 77 1015.3
20260510102952 16 11 4.8 24.1 0.00 0.00 0.00 77 1015.3
20260510102613 16 352 11.3 16.1 0.00 0.00 0.00 77 1015.0
20260510101756 16 350 9.7 16.1 0.00 0.00 0.00 76 1015.3
20260510101155 16 12 9.7 14.5 0.00 0.00 0.00 74 1015.3
20260510100827 16 341 3.2 9.7 0.00 0.00 0.00 73 1015.3
20260510095953 16 38 0.0 0.0 0.00 0.00 0.00 71 1014.6
20260510095341 16 14 0.0 12.9 0.00 0.00 0.00 70 1014.3
20260510094756 16 349 9.7 12.9 0.00 0.00 0.00 68 1014.3
20260510094156 17 4 0.0 6.4 0.00 0.00 0.00 67 1013.9
20260510093553 17 21 0.0 16.1 0.00 0.00 0.00 65 1013.9
20260510093445 17 4 11.3 16.1 0.00 0.00 0.00 63 1013.9
20260510092402 17 6 6.4 11.3 0.00 0.00 0.00 61 1013.9
20260510092036 17 13 0.0 4.8 0.00 0.00 0.00 59 1013.9
20260510091156 17 21 1.6 12.9 0.00 0.00 0.00 56 1013.9
20260510090600 18 24 0.0 3.2 0.00 0.00 0.00 53 1013.6
20260510090219 18 15 0.0 9.7 0.00 0.00 0.00 49 1013.6
20260510085359 18 51 8.0 9.7 0.00 0.00 0.00 47 1013.9
20260510084756 18 7 1.6 12.9 0.00 0.00 0.00 44 1013.9
20260510084155 18 343 9.7 12.9 0.00 0.00 0.00 42 1013.6
20260510083820 19 5 0.0 9.7 0.00 0.00 0.00 38 1013.6
20260510083035 19 5 8.0 14.5 0.00 0.00 0.00 37 1013.3
20260510082450 19 72 0.0 6.4 0.00 0.00 0.00 35 1013.3
20260510081913 19 17 0.0 0.0 0.00 0.00 0.00 33 1013.3
20260510081248 19 349 0.0 1.6 0.00 0.00 0.00 32 1013.6
20260510080907 20 4 0.0 6.4 0.00 0.00 0.00 31 1013.6
20260510080058 20 346 0.0 4.8 0.00 0.00 0.00 30 1013.6
20260510075454 20 354 0.0 1.6 0.00 0.00 0.00 29 1013.3
20260510075124 21 41 0.0 4.8 0.00 0.00 0.00 28 1013.3
20260510074245 21 14 3.2 12.9 0.00 0.00 0.00 27 1013.3
20260510073914 21 14 0.0 17.7 0.00 0.00 0.00 26 1013.6
20260510073111 22 5 0.0 14.5 0.00 0.00 0.00 24 1013.6
20260510072445 22 17 6.4 12.9 0.00 0.00 0.00 24 1013.3
20260510071856 22 12 0.0 1.6 0.00 0.00 0.00 23 1013.9
20260510071256 21 4 0.0 3.2 0.00 0.00 0.00 23 1013.9
20260510070649 21 42 0.0 4.8 0.00 0.00 0.00 24 1013.6
20260510070051 21 357 0.0 1.6 0.00 0.00 0.00 23 1013.3
20260510065458 21 30 0.0 0.0 0.00 0.00 0.00 23 1013.3
20260510065116 21 10 0.0 3.2 0.00 0.00 0.00 23 1013.6
20260510064242 22 355 0.0 0.0 0.00 0.00 0.00 21 1013.3
20260510063928 22 353 0.0 0.0 0.00 0.00 0.00 21 1013.3
20260510063058 23 31 0.0 0.0 0.00 0.00 0.00 21 1013.3
20260510062500 23 161 0.0 0.0 0.00 0.00 0.00 19 1012.9
20260510061907 23 149 0.0 0.0 0.00 0.00 0.00 19 1012.6
20260510061254 23 154 0.0 0.0 0.00 0.00 0.00 20 1012.6
20260510060655 23 144 0.0 0.0 0.00 0.00 0.00 20 1012.6
20260510060113 23 127 0.0 0.0 0.00 0.00 0.00 21 1012.6
20260510055455 23 134 0.0 0.0 0.00 0.00 0.00 20 1012.6
20260510054903 23 3 0.0 0.0 0.00 0.00 0.00 20 1012.3
20260510054355 23 3 0.0 0.0 0.00 0.00 0.00 20 1012.6
20260510054038 23 3 0.0 0.0 0.00 0.00 0.00 20 1012.6
20260510053249 23 3 0.0 0.0 0.00 0.00 0.00 20 1012.6
20260510052701 24 3 0.0 0.0 0.00 0.00 0.00 19 1012.6
20260510052113 24 3 0.0 0.0 0.00 0.00 0.00 20 1012.6
20260510051716 25 3 0.0 0.0 0.00 0.00 0.00 18 1012.9
20260510050853 26 4 0.0 1.6 0.00 0.00 0.00 18 1012.6
20260510050252 27 3 0.0 14.5 0.00 0.00 0.00 16 1012.9
20260510045650 27 78 0.0 29.0 0.00 0.00 0.00 15 1012.9
20260510045053 26 66 1.6 20.9 0.00 0.00 0.00 17 1012.6
20260510044445 24 357 0.0 11.3 0.00 0.00 0.00 18 1012.6
20260510043857 22 350 3.2 6.4 0.00 0.00 0.00 20 1012.9
20260510043254 21 8 0.0 0.0 0.00 0.00 0.00 24 1012.9
20260510042657 21 204 0.0 0.0 0.00 0.00 0.00 24 1012.6
20260510042054 21 204 0.0 0.0 0.00 0.00 0.00 23 1012.6
20260510041506 22 204 0.0 0.0 0.00 0.00 0.00 23 1012.3
20260510040852 22 204 0.0 0.0 0.00 0.00 0.00 21 1011.9
20260510040252 22 204 0.0 0.0 0.00 0.00 0.00 21 1012.3
20260510035919 22 204 0.0 0.0 0.00 0.00 0.00 23 1012.3
20260510035111 22 204 0.0 0.0 0.00 0.00 0.00 21 1012.3
20260510034511 22 204 0.0 0.0 0.00 0.00 0.00 22 1012.3
20260510034113 22 213 0.0 0.0 0.00 0.00 0.00 23 1012.3
20260510033250 21 215 0.0 0.0 0.00 0.00 0.00 22 1012.3
20260510032658 22 215 0.0 0.0 0.00 0.00 0.00 22 1012.3
20260510032315 22 215 0.0 0.0 0.00 0.00 0.00 21 1012.3
20260510031457 23 215 0.0 0.0 0.00 0.00 0.00 20 1011.9
20260510030852 23 209 0.0 0.0 0.00 0.00 0.00 20 1012.3
20260510030254 24 203 0.0 0.0 0.00 0.00 0.00 19 1011.9
20260510025654 24 203 0.0 0.0 0.00 0.00 0.00 19 1011.9
20260510025312 25 203 0.0 0.0 0.00 0.00 0.00 18 1011.6
20260510024511 25 203 0.0 0.0 0.00 0.00 0.00 18 1011.6
20260510023853 25 151 0.0 0.0 0.00 0.00 0.00 17 1011.6
20260510023516 25 168 0.0 0.0 0.00 0.00 0.00 17 1011.2
20260510022700 26 142 0.0 0.0 0.00 0.00 0.00 17 1011.2
20260510022051 26 205 0.0 0.0 0.00 0.00 0.00 16 1011.2
20260510021714 26 198 0.0 0.0 0.00 0.00 0.00 16 1011.2
20260510020856 26 186 0.0 0.0 0.00 0.00 0.00 16 1011.2
20260510020519 26 204 0.0 0.0 0.00 0.00 0.00 15 1011.2
20260510015657 26 202 0.0 0.0 0.00 0.00 0.00 15 1010.9
20260510015059 27 192 0.0 0.0 0.00 0.00 0.00 15 1011.2
20260510014452 27 193 0.0 0.0 0.00 0.00 0.00 15 1011.2
20260510013851 28 202 0.0 0.0 0.00 0.00 0.00 13 1010.6
20260510013254 28 191 0.0 3.2 0.00 0.00 0.00 13 1010.9
20260510012656 28 199 1.6 3.2 0.00 0.00 0.00 13 1010.6
20260510012112 28 354 0.0 0.0 0.00 0.00 0.00 13 1010.9
20260510011712 29 214 0.0 12.9 0.00 0.00 0.00 13 1010.9
20260510010847 28 196 0.0 0.0 0.00 0.00 0.00 15 1011.2
20260510010252 28 208 0.0 0.0 0.00 0.00 0.00 15 1011.2
20260510010129 28 207 0.0 12.9 0.00 0.00 0.00 14 1010.9
20260510005053 28 203 1.6 9.7 0.00 0.00 0.00 14 1010.9
20260510004714 28 192 3.2 9.7 0.00 0.00 0.00 14 1011.2
20260510003856 29 188 0.0 1.6 0.00 0.00 0.00 14 1010.9
20260510003245 29 216 0.0 1.6 0.00 0.00 0.00 13 1011.2
20260510002655 30 219 0.0 0.0 0.00 0.00 0.00 13 1011.2
20260510002102 30 198 0.0 0.0 0.00 0.00 0.00 14 1011.2
20260510001451 30 219 0.0 16.1 0.00 0.00 0.00 14 1010.9
20260510000855 30 182 9.7 16.1 0.00 0.00 0.00 13 1011.2
20260510000250 30 190 3.2 16.1 0.00 0.00 0.00 14 1011.2
20260509235648 30 226 0.0 9.7 0.00 0.00 0.00 14 1010.9
20260509235051 30 194 1.6 4.8 0.00 0.00 0.00 13 1011.2
20260509234955 30 193 0.0 0.0 0.00 0.00 0.00 14 1010.9
20260509233854 30 183 0.0 0.0 0.00 0.00 0.00 15 1010.9
20260509233306 30 236 0.0 11.3 0.00 0.00 0.00 13 1011.2
20260509232701 30 227 4.8 11.3 0.00 0.00 0.00 12 1010.9
20260509232055 30 133 0.0 11.3 0.00 0.00 0.00 13 1010.9
20260509231713 31 181 3.2 22.5 0.00 0.00 0.00 13 1010.9
20260509231006 31 196 0.0 11.3 0.00 0.00 0.00 12 1011.2
20260509230852 32 229 11.3 22.5 0.00 0.00 0.00 12 1011.2
20260509225653 32 199 0.0 16.1 0.00 0.00 0.00 12 1010.9
20260509225056 33 220 9.7 16.1 0.00 0.00 0.00 11 1011.2
20260509224721 33 209 0.0 3.2 0.00 0.00 0.00 11 1011.2
20260509224056 32 212 0.0 3.2 0.00 0.00 0.00 11 1010.9
20260509223302 33 201 1.6 3.2 0.00 0.00 0.00 11 1011.2
20260509222653 32 212 0.0 1.6 0.00 0.00 0.00 11 1011.2
20260509222052 32 201 0.0 12.9 0.00 0.00 0.00 11 1011.2
20260509221510 31 197 0.0 1.6 0.00 0.00 0.00 11 1011.2
20260509220855 32 227 0.0 0.0 0.00 0.00 0.00 11 1011.2
20260509220225 32 242 0.0 3.2 0.00 0.00 0.00 12 1011.2
20260509215653 31 339 0.0 0.0 0.00 0.00 0.00 12 1011.2
20260509215306 31 194 0.0 0.0 0.00 0.00 0.00 13 1011.6
20260509214452 31 128 0.0 0.0 0.00 0.00 0.00 12 1011.9
20260509213844 31 148 0.0 0.0 0.00 0.00 0.00 11 1011.6
20260509213252 31 236 0.0 4.8 0.00 0.00 0.00 11 1011.9
20260509212650 32 177 1.6 4.8 0.00 0.00 0.00 11 1011.6
20260509212049 32 162 0.0 0.0 0.00 0.00 0.00 11 1011.9
20260509211452 33 240 0.0 0.0 0.00 0.00 0.00 10 1012.3
20260509210850 33 197 0.0 0.0 0.00 0.00 0.00 10 1012.3
20260509210329 33 240 0.0 1.6 0.00 0.00 0.00 10 1012.3
20260509205804 33 350 0.0 17.7 0.00 0.00 0.00 10 1012.6
20260509205516 33 263 6.4 17.7 0.00 0.00 0.00 10 1012.3
20260509204654 33 231 0.0 3.2 0.00 0.00 0.00 10 1012.3
20260509204051 33 19 0.0 4.8 0.00 0.00 0.00 11 1012.3
20260509203453 33 325 1.6 4.8 0.00 0.00 0.00 10 1012.9
20260509202852 32 201 0.0 14.5 0.00 0.00 0.00 12 1012.6
20260509202254 33 246 4.8 14.5 0.00 0.00 0.00 11 1012.9
20260509201658 33 321 0.0 0.0 0.00 0.00 0.00 12 1013.3
20260509201032 33 247 0.0 0.0 0.00 0.00 0.00 11 1012.9
20260509200451 32 357 0.0 14.5 0.00 0.00 0.00 11 1013.3
20260509195853 33 344 0.0 0.0 0.00 0.00 0.00 11 1012.9
20260509195247 33 165 0.0 1.6 0.00 0.00 0.00 11 1012.9
20260509194658 32 241 0.0 1.6 0.00 0.00 0.00 12 1013.3
20260509194052 32 316 0.0 0.0 0.00 0.00 0.00 11 1013.3
20260509193443 32 271 0.0 0.0 0.00 0.00 0.00 12 1013.3
20260509192854 32 12 0.0 0.0 0.00 0.00 0.00 12 1013.6
20260509192307 32 226 0.0 0.0 0.00 0.00 0.00 14 1013.6
20260509192011 32 284 0.0 0.0 0.00 0.00 0.00 13 1013.6
20260509191150 32 208 0.0 0.0 0.00 0.00 0.00 13 1013.6
20260509190601 32 216 0.0 0.0 0.00 0.00 0.00 13 1013.6
20260509185954 32 139 0.0 0.0 0.00 0.00 0.00 14 1013.6
20260509185346 32 185 0.0 0.0 0.00 0.00 0.00 14 1013.9
20260509184753 32 168 0.0 4.8 0.00 0.00 0.00 13 1014.3
20260509184204 31 190 1.6 11.3 0.00 0.00 0.00 14 1013.9
20260509183656 32 216 3.2 11.3 0.00 0.00 0.00 14 1014.3
20260509183052 31 185 0.0 0.0 0.00 0.00 0.00 16 1014.3
20260509182719 31 212 0.0 0.0 0.00 0.00 0.00 14 1014.6
20260509181912 30 192 0.0 9.7 0.00 0.00 0.00 15 1014.6
20260509181255 30 215 0.0 9.7 0.00 0.00 0.00 15 1014.6
20260509180652 30 205 0.0 6.4 0.00 0.00 0.00 14 1014.6
20260509180058 30 172 0.0 3.2 0.00 0.00 0.00 15 1014.6
20260509175452 31 229 0.0 0.0 0.00 0.00 0.00 15 1015.0
20260509174932 30 150 0.0 3.2 0.00 0.00 0.00 17 1015.0
20260509174612 30 191 0.0 4.8 0.00 0.00 0.00 17 1015.0
20260509173803 30 182 3.2 4.8 0.00 0.00 0.00 19 1015.0
20260509173245 29 348 0.0 3.2 0.00 0.00 0.00 21 1015.0
20260509172651 29 185 0.0 0.0 0.00 0.00 0.00 21 1015.0
20260509172056 28 179 0.0 0.0 0.00 0.00 0.00 21 1015.3
20260509171457 28 200 0.0 22.5 0.00 0.00 0.00 21 1015.3